Time,TemperatureF,DewpointF,PressureIn,WindDirection,WindDirectionDegrees,WindSpeedMPH,WindSpeedGustMPH,Humidity,HourlyPrecipIn,Conditions,Clouds,dailyrainin,SoftwareType,DateUTC
2013-01-19 00:04:00,37.0,25.0,-100.00,SW,220,16.0,23.0,61,0.00,,,-99.99,,2013-01-19 05:04:00,
2013-01-19 00:12:00,37.0,25.0,-100.00,SW,225,16.0,27.0,61,0.00,,,-99.99,,2013-01-19 05:12:00,
2013-01-19 00:23:00,37.0,25.0,-100.00,SW,220,16.0,24.0,61,0.00,,,-99.99,,2013-01-19 05:23:00,
2013-01-19 00:33:00,37.0,25.0,-100.00,SW,225,17.0,24.0,61,0.00,,,-99.99,,2013-01-19 05:33:00,
2013-01-19 00:42:00,37.0,25.0,-100.00,SW,230,16.0,19.0,61,0.00,,,-99.99,,2013-01-19 05:42:00,
2013-01-19 00:53:00,37.0,25.0,-100.00,SW,225,16.0,25.0,60,0.00,,,-99.99,,2013-01-19 05:53:00,
2013-01-19 01:03:00,37.0,25.0,-100.00,SW,225,17.0,24.0,60,0.00,,,-99.99,,2013-01-19 06:03:00,
2013-01-19 01:12:00,37.0,25.0,-100.00,SW,225,17.0,24.0,60,0.00,,,-99.99,,2013-01-19 06:12:00,
2013-01-19 01:22:00,38.0,25.0,-100.00,SW,230,19.0,27.0,58,0.00,,,-99.99,,2013-01-19 06:22:00,
2013-01-19 01:33:00,38.0,24.0,-100.00,SW,230,17.0,30.0,58,0.00,,,-99.99,,2013-01-19 06:33:00,
2013-01-19 01:43:00,38.0,25.0,-100.00,SW,230,21.0,28.0,58,0.00,,,-99.99,,2013-01-19 06:43:00,
2013-01-19 01:53:00,38.0,24.0,-100.00,SW,220,19.0,29.0,58,0.00,,,-99.99,,2013-01-19 06:53:00,
2013-01-19 02:02:00,38.0,25.0,-100.00,SW,235,24.0,30.0,58,0.00,,,-99.99,,2013-01-19 07:02:00,
2013-01-19 02:12:00,38.0,25.0,-100.00,SW,235,22.0,30.0,58,0.00,,,-99.99,,2013-01-19 07:12:00,
2013-01-19 02:22:00,38.0,25.0,-100.00,SW,225,21.0,33.0,58,0.00,,,-99.99,,2013-01-19 07:22:00,
2013-01-19 02:33:00,38.0,25.0,-100.00,SW,220,23.0,29.0,58,0.00,,,-99.99,,2013-01-19 07:33:00,
2013-01-19 02:43:00,38.0,25.0,-100.00,SW,225,21.0,29.0,58,0.00,,,-99.99,,2013-01-19 07:43:00,
2013-01-19 02:52:00,38.0,25.0,-100.00,SW,225,21.0,30.0,58,0.00,,,-99.99,,2013-01-19 07:52:00,
2013-01-19 03:02:00,38.0,25.0,-100.00,SW,230,22.0,30.0,58,0.00,,,-99.99,,2013-01-19 08:02:00,
2013-01-19 03:12:00,38.0,25.0,-100.00,SW,230,21.0,32.0,58,0.00,,,-99.99,,2013-01-19 08:12:00,
2013-01-19 03:22:00,38.0,25.0,-100.00,SW,230,21.0,32.0,58,0.00,,,-99.99,,2013-01-19 08:22:00,
2013-01-19 03:32:00,38.0,25.0,-100.00,SW,230,22.0,33.0,58,0.00,,,-99.99,,2013-01-19 08:32:00,
2013-01-19 03:43:00,37.0,25.0,-100.00,SW,230,19.0,30.0,59,0.00,,,-99.99,,2013-01-19 08:43:00,
2013-01-19 03:52:00,38.0,25.0,-100.00,SW,230,19.0,29.0,59,0.00,,,-99.99,,2013-01-19 08:52:00,
2013-01-19 04:02:00,38.0,25.0,-100.00,SW,230,19.0,29.0,59,0.00,,,-99.99,,2013-01-19 09:02:00,
2013-01-19 04:12:00,37.0,25.0,-100.00,WSW,245,18.0,25.0,59,0.00,,,-99.99,,2013-01-19 09:12:00,
2013-01-19 04:23:00,38.0,25.0,-100.00,SW,230,21.0,30.0,59,0.00,,,-99.99,,2013-01-19 09:23:00,
2013-01-19 04:33:00,37.0,25.0,-100.00,SW,235,19.0,27.0,59,0.00,,,-99.99,,2013-01-19 09:33:00,
2013-01-19 04:42:00,38.0,25.0,-100.00,SW,235,22.0,25.0,60,0.00,,,-99.99,,2013-01-19 09:42:00,
2013-01-19 04:52:00,37.0,25.0,-100.00,SW,230,18.0,27.0,60,0.00,,,-99.99,,2013-01-19 09:52:00,
2013-01-19 05:02:00,37.0,25.0,-100.00,SW,235,18.0,25.0,61,0.00,,,-99.99,,2013-01-19 10:02:00,
2013-01-19 05:12:00,37.0,25.0,-100.00,SW,235,19.0,26.0,61,0.00,,,-99.99,,2013-01-19 10:12:00,
2013-01-19 05:22:00,37.0,25.0,-100.00,SW,235,17.0,28.0,61,0.00,,,-99.99,,2013-01-19 10:22:00,
2013-01-19 05:32:00,37.0,25.0,-100.00,WSW,240,17.0,25.0,61,0.00,,,-99.99,,2013-01-19 10:32:00,
2013-01-19 05:43:00,37.0,25.0,-100.00,SW,230,17.0,22.0,61,0.00,,,-99.99,,2013-01-19 10:43:00,
2013-01-19 05:52:00,37.0,25.0,-100.00,SW,235,16.0,23.0,62,0.00,,,-99.99,,2013-01-19 10:52:00,
2013-01-19 06:03:00,37.0,26.0,-100.00,SW,235,17.0,23.0,63,0.00,,,-99.99,,2013-01-19 11:03:00,
2013-01-19 06:12:00,37.0,26.0,-100.00,SW,225,15.0,21.0,63,0.00,,,-99.99,,2013-01-19 11:12:00,
2013-01-19 07:48:00,36.0,26.0,-100.00,SW,220,13.0,17.0,66,0.00,,,-99.99,,2013-01-19 12:48:00,
2013-01-19 07:53:00,36.0,26.0,-100.00,SW,230,14.0,19.0,66,0.00,,,-99.99,,2013-01-19 12:53:00,
2013-01-19 08:03:00,36.0,26.0,-100.00,SW,225,13.0,16.0,67,0.00,,,-99.99,,2013-01-19 13:03:00,
2013-01-19 08:12:00,36.0,27.0,-100.00,SW,225,14.0,18.0,67,0.00,,,-99.99,,2013-01-19 13:12:00,
2013-01-19 08:22:00,36.0,26.0,-100.00,SW,225,13.0,19.0,68,0.00,,,-99.99,,2013-01-19 13:22:00,
2013-01-19 08:33:00,36.0,27.0,-100.00,SW,225,12.0,16.0,69,0.00,,,-99.99,,2013-01-19 13:33:00,
2013-01-19 08:43:00,36.0,27.0,-100.00,SW,220,11.0,16.0,68,0.00,,,-99.99,,2013-01-19 13:43:00,
2013-01-19 08:53:00,36.0,27.0,-100.00,SW,220,11.0,17.0,68,0.00,,,-99.99,,2013-01-19 13:53:00,
2013-01-19 09:03:00,37.0,27.0,-100.00,SW,225,13.0,17.0,68,0.00,,,-99.99,,2013-01-19 14:03:00,
2013-01-19 09:12:00,37.0,28.0,-100.00,SW,220,12.0,17.0,68,0.00,,,-99.99,,2013-01-19 14:12:00,
2013-01-19 09:23:00,37.0,28.0,-100.00,SW,230,12.0,16.0,67,0.00,,,-99.99,,2013-01-19 14:23:00,
2013-01-19 09:34:00,38.0,28.0,-100.00,SW,215,12.0,18.0,67,0.00,,,-99.99,,2013-01-19 14:34:00,
2013-01-19 09:43:00,38.0,28.0,-100.00,SW,225,12.0,19.0,65,0.00,,,-99.99,,2013-01-19 14:43:00,
2013-01-19 09:53:00,39.0,28.0,-100.00,SW,220,13.0,17.0,65,0.00,,,-99.99,,2013-01-19 14:53:00,
2013-01-19 10:03:00,39.0,28.0,-100.00,SW,215,13.0,17.0,65,0.00,,,-99.99,,2013-01-19 15:03:00,
2013-01-19 10:13:00,40.0,29.0,-100.00,SW,225,13.0,19.0,64,0.00,,,-99.99,,2013-01-19 15:13:00,
2013-01-19 10:23:00,40.0,29.0,-100.00,SW,230,14.0,19.0,63,0.00,,,-99.99,,2013-01-19 15:23:00,
2013-01-19 10:33:00,40.0,29.0,-100.00,SW,230,15.0,23.0,62,0.00,,,-99.99,,2013-01-19 15:33:00,
2013-01-19 10:43:00,41.0,29.0,-100.00,SW,235,16.0,23.0,61,0.00,,,-99.99,,2013-01-19 15:43:00,
2013-01-19 10:53:00,42.0,29.0,-100.00,SW,225,15.0,19.0,60,0.00,,,-99.99,,2013-01-19 15:53:00,
2013-01-19 11:03:00,42.0,29.0,-100.00,SW,215,15.0,22.0,59,0.00,,,-99.99,,2013-01-19 16:03:00,
2013-01-19 11:13:00,42.0,29.0,-100.00,SW,235,17.0,25.0,58,0.00,,,-99.99,,2013-01-19 16:13:00,
2013-01-19 11:23:00,43.0,29.0,-100.00,SW,230,16.0,22.0,58,0.00,,,-99.99,,2013-01-19 16:23:00,
2013-01-19 11:33:00,43.0,29.0,-100.00,SW,215,17.0,26.0,57,0.00,,,-99.99,,2013-01-19 16:33:00,
2013-01-19 11:43:00,43.0,29.0,-100.00,SW,235,19.0,28.0,57,0.00,,,-99.99,,2013-01-19 16:43:00,
2013-01-19 11:53:00,44.0,29.0,-100.00,WSW,240,24.0,29.0,57,0.00,,,-99.99,,2013-01-19 16:53:00,
2013-01-19 12:03:00,44.0,29.0,-100.00,SW,215,21.0,27.0,56,0.00,,,-99.99,,2013-01-19 17:03:00,
2013-01-19 12:29:00,45.0,30.0,-100.00,SW,230,18.0,22.0,56,0.00,,,-99.99,,2013-01-19 17:29:00,
2013-01-19 12:36:00,45.0,30.0,-100.00,SW,235,21.0,29.0,56,0.00,,,-99.99,,2013-01-19 17:36:00,
2013-01-19 12:48:00,45.0,31.0,-100.00,SW,225,17.0,25.0,56,0.00,,,-99.99,,2013-01-19 17:48:00,
2013-01-19 12:53:00,45.0,31.0,-100.00,SW,225,21.0,30.0,55,0.00,,,-99.99,,2013-01-19 17:53:00,
2013-01-19 13:12:00,46.0,31.0,-100.00,SW,230,19.0,32.0,56,0.00,,,-99.99,,2013-01-19 18:12:00,
2013-01-19 13:27:00,47.0,32.0,-100.00,SW,230,18.0,28.0,55,0.00,,,-99.99,,2013-01-19 18:27:00,
2013-01-19 13:36:00,47.0,32.0,-100.00,SW,235,19.0,27.0,55,0.00,,,-99.99,,2013-01-19 18:36:00,
2013-01-19 13:45:00,47.0,31.0,-100.00,SW,235,22.0,29.0,54,0.00,,,-99.99,,2013-01-19 18:45:00,
2013-01-19 14:09:00,48.0,32.0,-100.00,SW,235,20.0,34.0,54,0.00,,,-99.99,,2013-01-19 19:09:00,
2013-01-19 14:20:00,48.0,32.0,-100.00,SW,220,18.0,31.0,54,0.00,,,-99.99,,2013-01-19 19:20:00,
2013-01-19 14:30:00,48.0,32.0,-100.00,SW,235,23.0,30.0,54,0.00,,,-99.99,,2013-01-19 19:30:00,
2013-01-19 14:40:00,48.0,32.0,-100.00,SW,235,22.0,32.0,54,0.00,,,-99.99,,2013-01-19 19:40:00,
2013-01-19 14:46:00,48.0,32.0,-100.00,WSW,240,22.0,32.0,54,0.00,,,-99.99,,2013-01-19 19:46:00,
2013-01-19 14:54:00,48.0,32.0,-100.00,WSW,240,27.0,35.0,54,0.00,,,-99.99,,2013-01-19 19:54:00,
2013-01-19 15:10:00,48.0,32.0,-100.00,SW,235,26.0,35.0,53,0.00,,,-99.99,,2013-01-19 20:10:00,
2013-01-19 15:19:00,48.0,32.0,-100.00,SW,235,25.0,34.0,53,0.00,,,-99.99,,2013-01-19 20:19:00,
2013-01-19 15:25:00,49.0,33.0,-100.00,WSW,245,22.0,32.0,53,0.00,,,-99.99,,2013-01-19 20:25:00,
2013-01-19 15:39:00,48.0,32.0,-100.00,WSW,250,26.0,38.0,53,0.00,,,-99.99,,2013-01-19 20:39:00,
2013-01-19 15:48:00,48.0,32.0,-100.00,SW,235,21.0,37.0,53,0.00,,,-99.99,,2013-01-19 20:48:00,
2013-01-19 15:54:00,49.0,33.0,-100.00,SW,225,22.0,37.0,53,0.00,,,-99.99,,2013-01-19 20:54:00,
2013-01-19 16:07:00,49.0,33.0,-100.00,SW,215,17.0,32.0,54,0.00,,,-99.99,,2013-01-19 21:07:00,
2013-01-19 16:14:00,49.0,33.0,-100.00,SW,235,17.0,32.0,54,0.00,,,-99.99,,2013-01-19 21:14:00,
2013-01-19 16:26:00,49.0,33.0,-100.00,SW,230,23.0,35.0,54,0.00,,,-99.99,,2013-01-19 21:26:00,
2013-01-19 16:45:00,49.0,33.0,-100.00,SW,235,20.0,29.0,54,0.00,,,-99.99,,2013-01-19 21:45:00,
2013-01-19 16:57:00,47.0,33.0,-100.00,SW,230,22.0,27.0,56,0.00,,,-99.99,,2013-01-19 21:57:00,
2013-01-19 17:15:00,47.0,33.0,-100.00,SW,235,21.0,30.0,56,0.00,,,-99.99,,2013-01-19 22:15:00,
2013-01-19 17:27:00,47.0,33.0,-100.00,SW,235,17.0,30.0,57,0.00,,,-99.99,,2013-01-19 22:27:00,
2013-01-19 17:47:00,47.0,33.0,-100.00,SW,235,21.0,27.0,57,0.00,,,-99.99,,2013-01-19 22:47:00,
2013-01-19 17:55:00,46.0,33.0,-100.00,WSW,245,17.0,24.0,58,0.00,,,-99.99,,2013-01-19 22:55:00,
2013-01-19 18:13:00,47.0,33.0,-100.00,SW,235,21.0,27.0,58,0.00,,,-99.99,,2013-01-19 23:13:00,
2013-01-19 18:25:00,46.0,33.0,-100.00,SW,230,17.0,24.0,60,0.00,,,-99.99,,2013-01-19 23:25:00,
2013-01-19 18:35:00,46.0,33.0,-100.00,SW,235,17.0,24.0,61,0.00,,,-99.99,,2013-01-19 23:35:00,
2013-01-19 18:45:00,46.0,33.0,-100.00,SW,225,21.0,26.0,60,0.00,,,-99.99,,2013-01-19 23:45:00,
2013-01-19 19:09:00,46.0,34.0,-100.00,SW,230,21.0,29.0,60,0.00,,,-99.99,,2013-01-20 00:09:00,
2013-01-19 19:25:00,46.0,34.0,-100.00,SW,230,17.0,26.0,62,0.00,,,-99.99,,2013-01-20 00:25:00,
2013-01-19 19:35:00,46.0,34.0,-100.00,SW,230,21.0,26.0,63,0.00,,,-99.99,,2013-01-20 00:35:00,
2013-01-19 19:46:00,45.0,34.0,-100.00,SW,235,17.0,23.0,64,0.00,,,-99.99,,2013-01-20 00:46:00,
2013-01-19 19:54:00,44.0,34.0,-100.00,SW,230,14.0,24.0,65,0.00,,,-99.99,,2013-01-20 00:54:00,
2013-01-19 20:04:00,44.0,34.0,-100.00,SW,235,17.0,25.0,66,0.00,,,-99.99,,2013-01-20 01:04:00,
2013-01-19 20:20:00,44.0,34.0,-100.00,SW,230,16.0,24.0,67,0.00,,,-99.99,,2013-01-20 01:20:00,
2013-01-19 20:27:00,43.0,34.0,-100.00,SW,230,14.0,21.0,69,0.00,,,-99.99,,2013-01-20 01:27:00,
2013-01-19 20:38:00,44.0,34.0,-100.00,SW,225,17.0,22.0,69,0.00,,,-99.99,,2013-01-20 01:38:00,
2013-01-19 20:48:00,44.0,34.0,-100.00,SW,225,18.0,24.0,69,0.00,,,-99.99,,2013-01-20 01:48:00,
2013-01-19 20:58:00,43.0,34.0,-100.00,SW,225,16.0,22.0,70,0.00,,,-99.99,,2013-01-20 01:58:00,
2013-01-19 21:15:00,44.0,35.0,-100.00,SW,235,21.0,27.0,70,0.00,,,-99.99,,2013-01-20 02:15:00,
2013-01-19 21:26:00,44.0,35.0,-100.00,SW,230,21.0,29.0,71,0.00,,,-99.99,,2013-01-20 02:26:00,
2013-01-19 21:36:00,44.0,35.0,-100.00,SW,225,24.0,31.0,71,0.00,,,-99.99,,2013-01-20 02:36:00,
2013-01-19 21:44:00,44.0,35.0,-100.00,SW,225,24.0,31.0,71,0.00,,,-99.99,,2013-01-20 02:44:00,
2013-01-19 21:55:00,44.0,35.0,-100.00,SW,230,21.0,25.0,72,0.00,,,-99.99,,2013-01-20 02:55:00,
2013-01-19 22:08:00,44.0,35.0,-100.00,WSW,240,19.0,27.0,72,0.00,,,-99.99,,2013-01-20 03:08:00,
2013-01-19 22:14:00,44.0,35.0,-100.00,WSW,240,19.0,28.0,72,0.00,,,-99.99,,2013-01-20 03:14:00,
2013-01-19 22:26:00,44.0,35.0,-100.00,SW,235,21.0,27.0,72,0.00,,,-99.99,,2013-01-20 03:26:00,
2013-01-19 22:39:00,43.0,35.0,-100.00,SW,235,18.0,26.0,73,0.00,,,-99.99,,2013-01-20 03:39:00,
2013-01-19 22:45:00,44.0,36.0,-100.00,SW,235,22.0,27.0,73,0.00,,,-99.99,,2013-01-20 03:45:00,
2013-01-19 22:54:00,44.0,36.0,-100.00,WSW,245,19.0,29.0,74,0.00,,,-99.99,,2013-01-20 03:54:00,
2013-01-19 23:05:00,43.0,36.0,-100.00,WSW,250,19.0,26.0,74,0.00,,,-99.99,,2013-01-20 04:05:00,
2013-01-19 23:15:00,43.0,36.0,-100.00,WSW,250,19.0,26.0,74,0.00,,,-99.99,,2013-01-20 04:15:00,
2013-01-19 23:44:00,44.0,36.0,-100.00,WSW,250,22.0,29.0,75,0.00,,,-99.99,,2013-01-20 04:44:00,
2013-01-19 23:58:00,43.0,36.0,-100.00,WSW,250,22.0,29.0,75,0.00,,,-99.99,,2013-01-20 04:58:00,